Weather History for Mosby, MO

Change the Weather History Date:

Monday, December 17, 2012

  Actual Average (KMKC) Record (KMKC)
Temperature  
Mean Temperature 37 °F -  
Max Temperature 44 °F 38 °F 62 °F (2002)
Min Temperature 30 °F 23 °F 3 °F (2000)
Degree Days  
Heating Degree Days 28    
Moisture  
Dew Point 32 °F    
Average Humidity 88    
Maximum Humidity 100    
Minimum Humidity 66    
Precipitation  
Precipitation 0.00 in - - ()
Sea Level Pressure  
Sea Level Pressure 29.74 in    
Wind  
Wind Speed 4 mph (West)    
Max Wind Speed 8 mph    
Max Gust Speed -    
Visibility 6 miles    
Events      
Averages and records for this station are not official NWS values.
T = Trace of Precipitation, MM = Missing Value Source: NWS Daily Summary

Daily Weather History Graph

Daily Weather History Graph

Search for Another Location

Airport:

Trip Planner

Search our weather history database for the weather conditions in past years. The results will help you decide how hot, cold, wet, or windy it might be!

Date:

Astronomy

Dec. 17, 2012 Rise Set
Actual Time 7:31 AM CST 4:55 PM CST
Civil Twilight 7:01 AM CST 5:25 PM CST
Nautical Twilight 6:27 AM CST 5:59 PM CST
Astronomical Twilight 5:54 AM CST 6:32 PM CST
Moon 10:42 AM CST (12/17) 10:16 PM CST (12/17)
Length of Visible Light 10h 24m
Length of Day
9h 24m
Waxing Crescent, 25% of the Moon is Illuminated
Dec 17
Waxing Crescent
Dec 19
First Quarter
Dec 28
Full
Jan 4
Last Quarter
Jan 11
New

Hourly Weather History & Observations

Time (CST) Temp. Windchill Dew Point Humidity Pressure Visibility Wind Dir Wind Speed Gust Speed Precip Events Conditions
12:15 AM 35.6 °F 31.7 °F 35.6 °F 100% 29.78 in 2.5 mi NW 4.6 mph - N/A   Overcast
12:35 AM 35.6 °F 30.7 °F 35.6 °F 100% 29.78 in 2.5 mi NW 5.8 mph - N/A   Overcast
12:55 AM 35.6 °F 31.7 °F 33.8 °F 93% 29.78 in 2.5 mi NW 4.6 mph - N/A   Overcast
1:15 AM 35.6 °F 30.7 °F 33.8 °F 93% 29.76 in 2.0 mi NNW 5.8 mph - N/A   Overcast
1:35 AM 35.6 °F 32.8 °F 33.8 °F 93% 29.76 in 3.0 mi NW 3.5 mph - N/A   Overcast
1:55 AM 35.6 °F - 33.8 °F 93% 29.76 in 3.0 mi Calm Calm - N/A   Overcast
2:15 AM 35.6 °F - 33.8 °F 93% 29.77 in 3.0 mi Calm Calm - N/A   Overcast
2:35 AM 35.6 °F 32.8 °F 33.8 °F 93% 29.77 in 4.0 mi NW 3.5 mph - N/A   Overcast
2:55 AM 35.6 °F - 33.8 °F 93% 29.77 in 4.0 mi Calm Calm - N/A   Overcast
3:15 AM 35.6 °F 32.8 °F 33.8 °F 93% 29.77 in 3.0 mi WNW 3.5 mph - N/A   Overcast
3:35 AM 35.6 °F 31.7 °F 33.8 °F 93% 29.77 in 3.0 mi NNW 4.6 mph - N/A   Mist
3:55 AM 35.6 °F 32.8 °F 33.8 °F 93% 29.77 in 2.5 mi NW 3.5 mph - N/A   Overcast
4:15 AM 35.6 °F - 33.8 °F 93% 29.77 in 3.0 mi Calm Calm - N/A   Overcast
4:35 AM 35.6 °F - 33.8 °F 93% 29.76 in 4.0 mi Calm Calm - N/A   Overcast
4:55 AM 35.6 °F 31.7 °F 32.0 °F 87% 29.75 in 5.0 mi NNW 4.6 mph - N/A   Overcast
5:15 AM 35.6 °F - 32.0 °F 87% 29.75 in 5.0 mi Calm Calm - N/A   Overcast
5:35 AM 35.6 °F 30.7 °F 32.0 °F 87% 29.74 in 7.0 mi NW 5.8 mph - N/A   Overcast
5:55 AM 35.6 °F - 32.0 °F 87% 29.75 in 5.0 mi Calm Calm - N/A   Overcast
6:15 AM 35.6 °F 32.8 °F 32.0 °F 87% 29.75 in 5.0 mi WNW 3.5 mph - N/A   Overcast
6:35 AM 35.6 °F 32.8 °F 32.0 °F 87% 29.76 in 5.0 mi WNW 3.5 mph - N/A   Overcast
6:55 AM 35.6 °F 32.8 °F 32.0 °F 87% 29.77 in 7.0 mi WNW 3.5 mph - N/A   Overcast
7:15 AM 35.6 °F 32.8 °F 32.0 °F 87% 29.77 in 5.0 mi WNW 3.5 mph - N/A   Overcast
7:35 AM 35.6 °F 31.7 °F 32.0 °F 87% 29.77 in 5.0 mi WNW 4.6 mph - N/A   Overcast
7:55 AM 35.6 °F 30.7 °F 32.0 °F 87% 29.76 in 5.0 mi WNW 5.8 mph - N/A   Overcast
8:15 AM 35.6 °F 31.7 °F 32.0 °F 87% 29.76 in 5.0 mi WNW 4.6 mph - N/A   Mist
8:35 AM 35.6 °F 32.8 °F 32.0 °F 87% 29.76 in 5.0 mi WNW 3.5 mph - N/A   Overcast
8:55 AM 35.6 °F 30.7 °F 32.0 °F 87% 29.77 in 5.0 mi West 5.8 mph - N/A   Overcast
9:15 AM 35.6 °F 32.8 °F 32.0 °F 87% 29.77 in 5.0 mi WNW 3.5 mph - N/A   Overcast
9:35 AM 35.6 °F 32.8 °F 32.0 °F 87% 29.78 in 5.0 mi West 3.5 mph - N/A   Overcast
9:55 AM 35.6 °F 30.7 °F 32.0 °F 87% 29.78 in 5.0 mi WSW 5.8 mph - N/A   Overcast
10:15 AM 35.6 °F 32.8 °F 32.0 °F 87% 29.78 in 5.0 mi WSW 3.5 mph - N/A   Overcast
10:35 AM 35.6 °F 29.9 °F 32.0 °F 87% 29.78 in 7.0 mi WSW 6.9 mph - N/A   Overcast
10:55 AM 35.6 °F 31.7 °F 32.0 °F 87% 29.78 in 7.0 mi WNW 4.6 mph - N/A   Overcast
11:15 AM 35.6 °F 30.7 °F 32.0 °F 87% 29.77 in 7.0 mi SSW 5.8 mph - N/A   Overcast
11:35 AM 37.4 °F 32.8 °F 32.0 °F 81% 29.77 in 7.0 mi SSW 5.8 mph - N/A   Overcast
11:55 AM 37.4 °F - 32.0 °F 81% 29.75 in 7.0 mi Calm Calm - N/A   Scattered Clouds
12:15 PM 39.2 °F 37.0 °F 32.0 °F 75% 29.74 in 7.0 mi SW 3.5 mph - N/A   Clear
12:35 PM 39.2 °F 34.2 °F 32.0 °F 75% 29.73 in 7.0 mi SW 6.9 mph - N/A   Clear
12:55 PM 41.0 °F 38.0 °F 32.0 °F 70% 29.73 in 10.0 mi SW 4.6 mph - N/A   Clear
1:15 PM 41.0 °F 39.0 °F 32.0 °F 70% 29.72 in 10.0 mi SSW 3.5 mph - N/A   Clear
1:35 PM 42.8 °F 38.6 °F 32.0 °F 66% 29.71 in 10.0 mi WSW 6.9 mph - N/A   Clear
1:55 PM 42.8 °F 40.1 °F 32.0 °F 66% 29.70 in 10.0 mi SSW 4.6 mph - N/A   Clear
2:15 PM 42.8 °F 41.1 °F 32.0 °F 66% 29.69 in 10.0 mi WSW 3.5 mph - N/A   Unknown
2:35 PM 44.6 °F 40.2 °F 33.8 °F 66% 29.69 in 10.0 mi SW 8.1 mph - N/A   Clear
2:55 PM 44.6 °F 40.2 °F 33.8 °F 66% 29.70 in 10.0 mi SW 8.1 mph - N/A   Clear
3:15 PM 44.6 °F 40.7 °F 33.8 °F 66% 29.70 in 10.0 mi SW 6.9 mph - N/A   Clear
3:35 PM 44.6 °F 42.2 °F 33.8 °F 66% 29.69 in 10.0 mi SW 4.6 mph - N/A   Clear
3:55 PM 44.6 °F 40.2 °F 33.8 °F 66% 29.70 in 10.0 mi WSW 8.1 mph - N/A   Clear
6:35 PM 33.8 °F - 32.0 °F 93% 29.72 in 10.0 mi Calm Calm - N/A   Clear
6:55 PM 33.8 °F - 32.0 °F 93% 29.72 in 10.0 mi Calm Calm - N/A   Clear
7:15 PM 32.0 °F - 32.0 °F 100% 29.72 in 7.0 mi Calm Calm - N/A   Clear
7:35 PM 32.0 °F - 32.0 °F 100% 29.72 in 7.0 mi Calm Calm - N/A   Clear
7:55 PM 32.0 °F - 32.0 °F 100% 29.73 in 5.0 mi Calm Calm - N/A   Clear
8:15 PM 32.0 °F - 30.2 °F 93% 29.73 in 7.0 mi Calm Calm - N/A   Clear
8:35 PM 30.2 °F - 30.2 °F 100% 29.72 in 4.0 mi Calm Calm - N/A   Clear
8:55 PM 30.2 °F - 30.2 °F 100% 29.72 in 4.0 mi Calm Calm - N/A   Clear
9:15 PM 30.2 °F - 30.2 °F 100% 29.72 in 5.0 mi Calm Calm - N/A   Clear
9:35 PM 30.2 °F - 30.2 °F 100% 29.72 in 5.0 mi Calm Calm - N/A   Clear
9:55 PM 30.2 °F - 30.2 °F 100% 29.72 in 4.0 mi Calm Calm - N/A   Clear
10:15 PM 30.2 °F 26.7 °F 30.2 °F 100% 29.71 in 5.0 mi ESE 3.5 mph - N/A   Clear
10:35 PM 30.2 °F - 30.2 °F 100% 29.72 in 5.0 mi Calm Calm - N/A   Clear
10:55 PM 32.0 °F 28.7 °F 30.2 °F 93% 29.71 in 5.0 mi ESE 3.5 mph - N/A   Clear
11:15 PM 32.0 °F 27.5 °F 32.0 °F 100% 29.70 in 5.0 mi ESE 4.6 mph - N/A   Clear
11:35 PM 32.0 °F 27.5 °F 32.0 °F 100% 29.69 in 7.0 mi ESE 4.6 mph - N/A   Clear
11:55 PM 33.8 °F 28.6 °F 32.0 °F 93% 29.69 in 7.0 mi SE 5.8 mph - N/A   Clear